Time,TemperatureF,DewpointF,PressureIn,WindDirection,WindDirectionDegrees,WindSpeedMPH,WindSpeedGustMPH,Humidity,HourlyPrecipIn,Conditions,Clouds,dailyrainin,SoftwareType,DateUTC
2013-05-26 00:01:00,66.5,60.6,30.08,NNW,344,2.0,8.0,81,0.00,,,0.00,WUHU216DAVISVP2,2013-05-26 05:01:00,
2013-05-26 00:06:00,66.5,60.6,30.08,NNW,344,3.0,8.0,81,0.00,,,0.00,WUHU216DAVISVP2,2013-05-26 05:06:00,
2013-05-26 00:11:00,66.3,60.4,30.08,NNW,344,3.0,7.0,81,0.00,,,0.00,WUHU216DAVISVP2,2013-05-26 05:11:00,
2013-05-26 00:16:00,66.2,60.6,30.08,NNW,343,4.0,7.0,82,0.00,,,0.00,WUHU216DAVISVP2,2013-05-26 05:16:00,
2013-05-26 00:21:00,66.1,60.5,30.08,NNW,343,3.0,7.0,82,0.00,,,0.00,WUHU216DAVISVP2,2013-05-26 05:21:00,
2013-05-26 00:26:00,66.0,60.4,30.08,NNW,342,4.0,7.0,82,0.00,,,0.00,WUHU216DAVISVP2,2013-05-26 05:26:00,
2013-05-26 00:31:00,65.9,60.3,30.08,NNW,342,2.0,7.0,82,0.00,,,0.00,WUHU216DAVISVP2,2013-05-26 05:31:00,
2013-05-26 00:36:00,65.9,60.3,30.09,NNW,342,2.0,6.0,82,0.00,,,0.00,WUHU216DAVISVP2,2013-05-26 05:36:00,
2013-05-26 00:41:00,65.7,60.1,30.09,NNW,343,3.0,6.0,82,0.00,,,0.00,WUHU216DAVISVP2,2013-05-26 05:41:00,
2013-05-26 00:46:00,65.6,60.0,30.09,NNW,342,2.0,6.0,82,0.00,,,0.00,WUHU216DAVISVP2,2013-05-26 05:46:00,
2013-05-26 00:51:00,65.5,59.9,30.09,NNW,342,3.0,5.0,82,0.00,,,0.00,WUHU216DAVISVP2,2013-05-26 05:51:00,
2013-05-26 00:56:00,65.4,60.1,30.09,NNW,342,2.0,6.0,83,0.00,,,0.00,WUHU216DAVISVP2,2013-05-26 05:56:00,
2013-05-26 01:01:00,65.4,60.1,30.09,NNW,342,2.0,6.0,83,0.00,,,0.00,WUHU216DAVISVP2,2013-05-26 06:01:00,
2013-05-26 01:06:00,65.3,60.0,30.08,NNW,342,2.0,6.0,83,0.00,,,0.00,WUHU216DAVISVP2,2013-05-26 06:06:00,
2013-05-26 01:11:00,65.2,59.9,30.08,NNW,342,3.0,6.0,83,0.00,,,0.00,WUHU216DAVISVP2,2013-05-26 06:11:00,
2013-05-26 01:16:00,65.1,59.8,30.08,NNW,342,3.0,6.0,83,0.00,,,0.00,WUHU216DAVISVP2,2013-05-26 06:16:00,
2013-05-26 01:21:00,65.0,59.8,30.08,NNW,342,4.0,6.0,83,0.00,,,0.00,WUHU216DAVISVP2,2013-05-26 06:21:00,
2013-05-26 01:26:00,64.9,59.7,30.08,NNW,337,4.0,7.0,83,0.00,,,0.00,WUHU216DAVISVP2,2013-05-26 06:26:00,
2013-05-26 01:31:00,64.8,59.9,30.08,NNW,337,4.0,7.0,84,0.00,,,0.00,WUHU216DAVISVP2,2013-05-26 06:31:00,
2013-05-26 01:36:00,64.7,59.8,30.07,NNW,337,3.0,7.0,84,0.00,,,0.00,WUHU216DAVISVP2,2013-05-26 06:36:00,
2013-05-26 01:41:00,64.6,59.7,30.08,NNW,335,3.0,7.0,84,0.00,,,0.00,WUHU216DAVISVP2,2013-05-26 06:41:00,
2013-05-26 01:46:00,64.4,59.5,30.07,NNW,336,3.0,7.0,84,0.00,,,0.00,WUHU216DAVISVP2,2013-05-26 06:46:00,
2013-05-26 01:51:00,64.3,59.4,30.07,NNW,340,3.0,6.0,84,0.00,,,0.00,WUHU216DAVISVP2,2013-05-26 06:51:00,
2013-05-26 01:56:00,64.2,59.3,30.07,NNW,340,6.0,7.0,84,0.00,,,0.00,WUHU216DAVISVP2,2013-05-26 06:56:00,
2013-05-26 02:01:00,64.2,59.6,30.07,NNW,340,3.0,7.0,85,0.00,,,0.00,WUHU216DAVISVP2,2013-05-26 07:01:00,
2013-05-26 02:06:00,64.1,59.5,30.07,NNW,341,3.0,7.0,85,0.00,,,0.00,WUHU216DAVISVP2,2013-05-26 07:06:00,
2013-05-26 02:11:00,63.9,59.3,30.07,NNW,341,2.0,7.0,85,0.00,,,0.00,WUHU216DAVISVP2,2013-05-26 07:11:00,
2013-05-26 02:16:00,63.8,59.2,30.07,NNW,343,4.0,7.0,85,0.00,,,0.00,WUHU216DAVISVP2,2013-05-26 07:16:00,
2013-05-26 02:21:00,63.7,59.1,30.07,NNW,343,6.0,6.0,85,0.00,,,0.00,WUHU216DAVISVP2,2013-05-26 07:21:00,
2013-05-26 02:26:00,63.6,59.0,30.07,NNW,343,2.0,8.0,85,0.00,,,0.00,WUHU216DAVISVP2,2013-05-26 07:26:00,
2013-05-26 02:31:00,63.6,59.4,30.06,NNW,339,4.0,8.0,86,0.00,,,0.00,WUHU216DAVISVP2,2013-05-26 07:31:00,
2013-05-26 02:36:00,63.5,59.3,30.06,NNW,338,5.0,8.0,86,0.00,,,0.00,WUHU216DAVISVP2,2013-05-26 07:36:00,
2013-05-26 02:41:00,63.5,59.3,30.06,NNW,335,3.0,8.0,86,0.00,,,0.00,WUHU216DAVISVP2,2013-05-26 07:41:00,
2013-05-26 02:46:00,63.5,59.2,30.06,NNW,341,4.0,8.0,86,0.00,,,0.00,WUHU216DAVISVP2,2013-05-26 07:46:00,
2013-05-26 02:51:00,63.4,59.1,30.06,NNW,346,4.0,8.0,86,0.00,,,0.00,WUHU216DAVISVP2,2013-05-26 07:51:00,
2013-05-26 02:56:00,63.4,59.1,30.06,NNW,341,4.0,8.0,86,0.00,,,0.00,WUHU216DAVISVP2,2013-05-26 07:56:00,
2013-05-26 03:01:00,63.2,58.9,30.05,NNW,338,5.0,8.0,86,0.00,,,0.00,WUHU216DAVISVP2,2013-05-26 08:01:00,
2013-05-26 03:06:00,63.1,58.9,30.05,NNW,337,5.0,8.0,86,0.00,,,0.00,WUHU216DAVISVP2,2013-05-26 08:06:00,
2013-05-26 03:11:00,63.0,59.1,30.05,NNW,335,3.0,8.0,87,0.00,,,0.00,WUHU216DAVISVP2,2013-05-26 08:11:00,
2013-05-26 03:16:00,63.0,59.0,30.05,NNW,338,3.0,8.0,87,0.00,,,0.00,WUHU216DAVISVP2,2013-05-26 08:16:00,
2013-05-26 03:21:00,63.0,59.0,30.05,NNW,341,6.0,8.0,87,0.00,,,0.00,WUHU216DAVISVP2,2013-05-26 08:21:00,
2013-05-26 03:26:00,62.8,58.9,30.05,NNW,341,4.0,8.0,87,0.00,,,0.00,WUHU216DAVISVP2,2013-05-26 08:26:00,
2013-05-26 03:31:00,62.8,58.9,30.05,NNW,342,3.0,8.0,87,0.00,,,0.00,WUHU216DAVISVP2,2013-05-26 08:31:00,
2013-05-26 03:36:00,62.6,58.7,30.05,NNW,341,2.0,8.0,87,0.00,,,0.00,WUHU216DAVISVP2,2013-05-26 08:36:00,
2013-05-26 03:41:00,62.7,58.7,30.05,NNW,341,1.0,6.0,87,0.00,,,0.00,WUHU216DAVISVP2,2013-05-26 08:41:00,
2013-05-26 03:46:00,62.5,58.5,30.05,NNW,341,4.0,6.0,87,0.00,,,0.00,WUHU216DAVISVP2,2013-05-26 08:46:00,
2013-05-26 03:51:00,62.4,58.8,30.05,NNW,341,2.0,6.0,88,0.00,,,0.00,WUHU216DAVISVP2,2013-05-26 08:51:00,
2013-05-26 03:56:00,62.3,58.7,30.05,NNW,339,6.0,6.0,88,0.00,,,0.00,WUHU216DAVISVP2,2013-05-26 08:56:00,
2013-05-26 04:01:00,62.2,58.6,30.04,NW,315,2.0,7.0,88,0.00,,,0.00,WUHU216DAVISVP2,2013-05-26 09:01:00,
2013-05-26 04:06:00,62.3,58.7,30.04,NW,326,3.0,7.0,88,0.00,,,0.00,WUHU216DAVISVP2,2013-05-26 09:06:00,
2013-05-26 04:11:00,62.2,58.6,30.04,NW,324,4.0,7.0,88,0.00,,,0.00,WUHU216DAVISVP2,2013-05-26 09:11:00,
2013-05-26 04:16:00,62.1,58.5,30.04,NNW,335,4.0,8.0,88,0.00,,,0.00,WUHU216DAVISVP2,2013-05-26 09:16:00,
2013-05-26 04:21:00,62.0,58.4,30.04,NNW,331,5.0,8.0,88,0.00,,,0.00,WUHU216DAVISVP2,2013-05-26 09:21:00,
2013-05-26 04:26:00,62.0,58.4,30.04,NNW,331,2.0,8.0,88,0.00,,,0.00,WUHU216DAVISVP2,2013-05-26 09:26:00,
2013-05-26 04:32:00,62.0,58.7,30.04,NNW,330,1.0,8.0,89,0.00,,,0.00,WUHU216DAVISVP2,2013-05-26 09:32:00,
2013-05-26 04:37:00,61.9,58.6,30.04,NNW,330,2.0,6.0,89,0.00,,,0.00,WUHU216DAVISVP2,2013-05-26 09:37:00,
2013-05-26 04:42:00,62.0,58.7,30.04,NNW,330,1.0,6.0,89,0.00,,,0.00,WUHU216DAVISVP2,2013-05-26 09:42:00,
2013-05-26 04:47:00,61.9,58.6,30.04,NNW,330,2.0,6.0,89,0.00,,,0.00,WUHU216DAVISVP2,2013-05-26 09:47:00,
2013-05-26 04:52:00,61.8,58.5,30.04,NNW,329,5.0,6.0,89,0.00,,,0.00,WUHU216DAVISVP2,2013-05-26 09:52:00,
2013-05-26 04:57:00,61.7,58.4,30.04,WNW,299,5.0,8.0,89,0.00,,,0.00,WUHU216DAVISVP2,2013-05-26 09:57:00,
2013-05-26 05:02:00,61.8,58.5,30.04,WNW,299,4.0,8.0,89,0.00,,,0.00,WUHU216DAVISVP2,2013-05-26 10:02:00,
2013-05-26 05:07:00,61.6,58.3,30.04,WNW,298,4.0,8.0,89,0.00,,,0.00,WUHU216DAVISVP2,2013-05-26 10:07:00,
2013-05-26 05:12:00,61.5,58.5,30.04,WNW,298,3.0,8.0,90,0.00,,,0.00,WUHU216DAVISVP2,2013-05-26 10:12:00,
2013-05-26 05:17:00,61.6,58.6,30.05,NW,306,3.0,8.0,90,0.00,,,0.00,WUHU216DAVISVP2,2013-05-26 10:17:00,
2013-05-26 05:22:00,61.5,58.5,30.05,NW,314,3.0,8.0,90,0.00,,,0.00,WUHU216DAVISVP2,2013-05-26 10:22:00,
2013-05-26 05:27:00,61.4,58.4,30.05,NW,318,3.0,7.0,90,0.00,,,0.00,WUHU216DAVISVP2,2013-05-26 10:27:00,
2013-05-26 05:32:00,61.2,58.3,30.04,NW,317,4.0,7.0,90,0.00,,,0.00,WUHU216DAVISVP2,2013-05-26 10:32:00,
2013-05-26 05:37:00,61.3,58.3,30.04,NW,320,6.0,7.0,90,0.00,,,0.00,WUHU216DAVISVP2,2013-05-26 10:37:00,
2013-05-26 05:42:00,61.2,58.2,30.04,NW,320,6.0,8.0,90,0.00,,,0.00,WUHU216DAVISVP2,2013-05-26 10:42:00,
2013-05-26 05:47:00,61.1,58.2,30.04,NW,320,3.0,8.0,90,0.00,,,0.00,WUHU216DAVISVP2,2013-05-26 10:47:00,
2013-05-26 05:52:00,61.1,58.4,30.04,NW,324,2.0,8.0,91,0.00,,,0.00,WUHU216DAVISVP2,2013-05-26 10:52:00,
2013-05-26 05:57:00,61.0,58.0,30.04,NW,325,3.0,8.0,90,0.00,,,0.00,WUHU216DAVISVP2,2013-05-26 10:57:00,
2013-05-26 06:02:00,61.0,58.4,30.04,NW,321,2.0,8.0,91,0.00,,,0.00,WUHU216DAVISVP2,2013-05-26 11:02:00,
2013-05-26 06:07:00,61.1,58.4,30.04,NW,324,4.0,8.0,91,0.00,,,0.00,WUHU216DAVISVP2,2013-05-26 11:07:00,
2013-05-26 06:12:00,61.1,58.1,30.04,NW,322,7.0,8.0,90,0.00,,,0.00,WUHU216DAVISVP2,2013-05-26 11:12:00,
2013-05-26 06:17:00,61.1,58.2,30.04,NW,320,5.0,8.0,90,0.00,,,0.00,WUHU216DAVISVP2,2013-05-26 11:17:00,
2013-05-26 06:22:00,61.2,58.2,30.05,NNW,329,4.0,8.0,90,0.00,,,0.00,WUHU216DAVISVP2,2013-05-26 11:22:00,
2013-05-26 06:27:00,61.3,58.3,30.05,NNW,330,3.0,8.0,90,0.00,,,0.00,WUHU216DAVISVP2,2013-05-26 11:27:00,
2013-05-26 06:32:00,61.5,58.5,30.05,NW,325,6.0,8.0,90,0.00,,,0.00,WUHU216DAVISVP2,2013-05-26 11:32:00,
2013-05-26 06:37:00,61.6,58.6,30.05,NNW,344,3.0,8.0,90,0.00,,,0.00,WUHU216DAVISVP2,2013-05-26 11:37:00,
2013-05-26 06:42:00,61.7,58.7,30.05,NNW,337,3.0,8.0,90,0.00,,,0.00,WUHU216DAVISVP2,2013-05-26 11:42:00,
2013-05-26 06:47:00,62.0,58.7,30.05,NNW,342,7.0,8.0,89,0.00,,,0.00,WUHU216DAVISVP2,2013-05-26 11:47:00,
2013-05-26 06:52:00,62.2,58.9,30.06,NNW,335,4.0,8.0,89,0.00,,,0.00,WUHU216DAVISVP2,2013-05-26 11:52:00,
2013-05-26 06:57:00,62.5,59.2,30.05,NNW,344,3.0,8.0,89,0.00,,,0.00,WUHU216DAVISVP2,2013-05-26 11:57:00,
2013-05-26 07:02:00,62.8,59.2,30.06,NNW,333,4.0,8.0,88,0.00,,,0.00,WUHU216DAVISVP2,2013-05-26 12:02:00,
2013-05-26 07:07:00,63.0,59.4,30.06,NNW,329,5.0,9.0,88,0.00,,,0.00,WUHU216DAVISVP2,2013-05-26 12:07:00,
2013-05-26 07:12:00,63.1,59.2,30.06,NNW,337,5.0,9.0,87,0.00,,,0.00,WUHU216DAVISVP2,2013-05-26 12:12:00,
2013-05-26 07:17:00,63.5,59.5,30.06,North,355,7.0,10.0,87,0.00,,,0.00,WUHU216DAVISVP2,2013-05-26 12:17:00,
2013-05-26 07:22:00,63.7,59.8,30.06,NNW,339,4.0,10.0,87,0.00,,,0.00,WUHU216DAVISVP2,2013-05-26 12:22:00,
2013-05-26 07:27:00,64.1,59.8,30.05,NNW,347,5.0,12.0,86,0.00,,,0.00,WUHU216DAVISVP2,2013-05-26 12:27:00,
2013-05-26 07:32:00,64.2,59.9,30.05,North,351,9.0,12.0,86,0.00,,,0.00,WUHU216DAVISVP2,2013-05-26 12:32:00,
2013-05-26 07:37:00,64.3,59.7,30.05,NNW,339,3.0,12.0,85,0.00,,,0.00,WUHU216DAVISVP2,2013-05-26 12:37:00,
2013-05-26 07:42:00,64.6,60.3,30.06,NNW,346,11.0,12.0,86,0.00,,,0.00,WUHU216DAVISVP2,2013-05-26 12:42:00,
2013-05-26 07:47:00,64.8,60.2,30.06,NNW,329,7.0,12.0,85,0.00,,,0.00,WUHU216DAVISVP2,2013-05-26 12:47:00,
2013-05-26 07:52:00,65.1,60.2,30.06,NW,315,6.0,12.0,84,0.00,,,0.00,WUHU216DAVISVP2,2013-05-26 12:52:00,
2013-05-26 07:57:00,65.5,60.5,30.06,NNW,334,3.0,11.0,84,0.00,,,0.00,WUHU216DAVISVP2,2013-05-26 12:57:00,
2013-05-26 08:02:00,65.8,60.9,30.06,NNW,341,10.0,11.0,84,0.00,,,0.00,WUHU216DAVISVP2,2013-05-26 13:02:00,
2013-05-26 08:07:00,66.1,61.1,30.05,NNW,335,8.0,11.0,84,0.00,,,0.00,WUHU216DAVISVP2,2013-05-26 13:07:00,
2013-05-26 08:12:00,66.3,61.0,30.05,NNW,333,4.0,10.0,83,0.00,,,0.00,WUHU216DAVISVP2,2013-05-26 13:12:00,
2013-05-26 08:17:00,66.5,60.8,30.05,NNW,344,5.0,12.0,82,0.00,,,0.00,WUHU216DAVISVP2,2013-05-26 13:17:00,
2013-05-26 08:22:00,66.7,61.1,30.05,NW,309,9.0,12.0,82,0.00,,,0.00,WUHU216DAVISVP2,2013-05-26 13:22:00,
2013-05-26 08:27:00,67.0,61.4,30.05,NNW,341,6.0,12.0,82,0.00,,,0.00,WUHU216DAVISVP2,2013-05-26 13:27:00,
2013-05-26 08:32:00,67.2,61.2,30.05,NNW,331,6.0,12.0,81,0.00,,,0.00,WUHU216DAVISVP2,2013-05-26 13:32:00,
2013-05-26 08:37:00,67.3,61.4,30.06,NNW,345,8.0,12.0,81,0.00,,,0.00,WUHU216DAVISVP2,2013-05-26 13:37:00,
2013-05-26 08:42:00,67.6,61.3,30.06,NNW,337,9.0,13.0,80,0.00,,,0.00,WUHU216DAVISVP2,2013-05-26 13:42:00,
2013-05-26 08:47:00,67.7,61.4,30.06,NNW,339,3.0,14.0,80,0.00,,,0.00,WUHU216DAVISVP2,2013-05-26 13:47:00,
2013-05-26 08:52:00,68.1,61.8,30.06,NW,320,5.0,14.0,80,0.00,,,0.00,WUHU216DAVISVP2,2013-05-26 13:52:00,
2013-05-26 08:57:00,68.5,61.8,30.06,NNW,329,3.0,14.0,79,0.00,,,0.00,WUHU216DAVISVP2,2013-05-26 13:57:00,
2013-05-26 09:02:00,69.0,61.9,30.06,NNW,347,8.0,14.0,78,0.00,,,0.00,WUHU216DAVISVP2,2013-05-26 14:02:00,
2013-05-26 09:07:00,69.2,62.9,30.06,North,354,7.0,12.0,80,0.00,,,0.00,WUHU216DAVISVP2,2013-05-26 14:07:00,
2013-05-26 09:12:00,69.7,62.3,30.06,NNW,338,11.0,13.0,77,0.00,,,0.00,WUHU216DAVISVP2,2013-05-26 14:12:00,
2013-05-26 09:17:00,69.6,62.2,30.06,North,353,5.0,13.0,77,0.00,,,0.00,WUHU216DAVISVP2,2013-05-26 14:17:00,
2013-05-26 09:22:00,69.8,62.4,30.05,NNW,343,1.0,13.0,77,0.00,,,0.00,WUHU216DAVISVP2,2013-05-26 14:22:00,
2013-05-26 09:27:00,70.1,62.4,30.06,NNW,337,10.0,13.0,76,0.00,,,0.00,WUHU216DAVISVP2,2013-05-26 14:27:00,
2013-05-26 09:32:00,70.2,62.1,30.05,North,352,8.0,11.0,75,0.00,,,0.00,WUHU216DAVISVP2,2013-05-26 14:32:00,
2013-05-26 09:37:00,70.4,62.2,30.05,NNE,15,3.0,11.0,75,0.00,,,0.00,WUHU216DAVISVP2,2013-05-26 14:37:00,
2013-05-26 09:42:00,70.6,62.5,30.06,North,350,4.0,11.0,75,0.00,,,0.00,WUHU216DAVISVP2,2013-05-26 14:42:00,
2013-05-26 09:47:00,71.0,62.1,30.06,NNW,330,9.0,14.0,73,0.00,,,0.00,WUHU216DAVISVP2,2013-05-26 14:47:00,
2013-05-26 09:52:00,71.3,62.3,30.05,North,359,4.0,14.0,73,0.00,,,0.00,WUHU216DAVISVP2,2013-05-26 14:52:00,
2013-05-26 09:57:00,71.1,61.8,30.06,NNW,348,10.0,14.0,72,0.00,,,0.00,WUHU216DAVISVP2,2013-05-26 14:57:00,
2013-05-26 10:02:00,71.1,62.2,30.06,North,354,13.0,14.0,73,0.00,,,0.00,WUHU216DAVISVP2,2013-05-26 15:02:00,
2013-05-26 10:07:00,71.1,61.8,30.06,NNW,336,13.0,14.0,72,0.00,,,0.00,WUHU216DAVISVP2,2013-05-26 15:07:00,
2013-05-26 10:12:00,70.9,62.3,30.06,NNW,339,7.0,14.0,74,0.00,,,0.00,WUHU216DAVISVP2,2013-05-26 15:12:00,
2013-05-26 10:17:00,70.9,62.0,30.06,North,358,12.0,16.0,73,0.00,,,0.00,WUHU216DAVISVP2,2013-05-26 15:17:00,
2013-05-26 10:22:00,70.7,61.8,30.06,North,355,3.0,16.0,73,0.00,,,0.00,WUHU216DAVISVP2,2013-05-26 15:22:00,
2013-05-26 10:27:00,70.8,62.6,30.06,NNE,15,4.0,16.0,75,0.00,,,0.00,WUHU216DAVISVP2,2013-05-26 15:27:00,
2013-05-26 10:32:00,71.2,62.6,30.06,NNW,347,7.0,16.0,74,0.00,,,0.00,WUHU216DAVISVP2,2013-05-26 15:32:00,
2013-05-26 10:37:00,71.7,63.1,30.06,North,10,6.0,13.0,74,0.00,,,0.00,WUHU216DAVISVP2,2013-05-26 15:37:00,
2013-05-26 10:42:00,71.7,61.6,30.06,North,351,8.0,16.0,70,0.00,,,0.00,WUHU216DAVISVP2,2013-05-26 15:42:00,
2013-05-26 10:47:00,71.2,61.1,30.06,North,351,12.0,16.0,70,0.00,,,0.00,WUHU216DAVISVP2,2013-05-26 15:47:00,
2013-05-26 10:52:00,71.1,61.4,30.06,North,10,8.0,16.0,71,0.00,,,0.00,WUHU216DAVISVP2,2013-05-26 15:52:00,
2013-05-26 10:57:00,71.4,62.1,30.05,North,5,5.0,16.0,72,0.00,,,0.00,WUHU216DAVISVP2,2013-05-26 15:57:00,
2013-05-26 11:02:00,71.7,61.6,30.05,NE,34,5.0,16.0,70,0.00,,,0.00,WUHU216DAVISVP2,2013-05-26 16:02:00,
2013-05-26 11:07:00,71.6,61.9,30.06,NNW,339,5.0,16.0,71,0.00,,,0.00,WUHU216DAVISVP2,2013-05-26 16:07:00,
2013-05-26 11:12:00,71.7,61.6,30.05,North,10,6.0,14.0,70,0.00,,,0.00,WUHU216DAVISVP2,2013-05-26 16:12:00,
2013-05-26 11:17:00,71.9,62.2,30.06,NNE,25,10.0,15.0,71,0.00,,,0.00,WUHU216DAVISVP2,2013-05-26 16:17:00,
2013-05-26 11:22:00,72.2,62.0,30.06,NNE,20,3.0,15.0,70,0.00,,,0.00,WUHU216DAVISVP2,2013-05-26 16:22:00,
2013-05-26 11:27:00,72.4,63.4,30.06,NE,46,4.0,15.0,73,0.00,,,0.00,WUHU216DAVISVP2,2013-05-26 16:27:00,
2013-05-26 11:32:00,72.4,62.7,30.05,North,360,3.0,15.0,71,0.00,,,0.00,WUHU216DAVISVP2,2013-05-26 16:32:00,
2013-05-26 11:37:00,72.3,61.8,30.05,NNW,343,8.0,16.0,69,0.00,,,0.00,WUHU216DAVISVP2,2013-05-26 16:37:00,
2013-05-26 11:42:00,72.3,62.1,30.05,NNE,15,2.0,16.0,70,0.00,,,0.00,WUHU216DAVISVP2,2013-05-26 16:42:00,
2013-05-26 11:47:00,72.2,62.9,30.05,North,8,2.0,16.0,72,0.00,,,0.00,WUHU216DAVISVP2,2013-05-26 16:47:00,
2013-05-26 11:52:00,72.6,63.2,30.05,NNW,345,4.0,16.0,72,0.00,,,0.00,WUHU216DAVISVP2,2013-05-26 16:52:00,
2013-05-26 11:57:00,72.2,62.1,30.05,NNW,331,6.0,16.0,70,0.00,,,0.00,WUHU216DAVISVP2,2013-05-26 16:57:00,
2013-05-26 12:02:00,72.3,62.1,30.05,NNW,344,5.0,16.0,70,0.00,,,0.00,WUHU216DAVISVP2,2013-05-26 17:02:00,
2013-05-26 12:07:00,72.4,62.7,30.05,NNE,20,3.0,16.0,71,0.00,,,0.00,WUHU216DAVISVP2,2013-05-26 17:07:00,
2013-05-26 12:12:00,72.6,62.4,30.05,NNW,343,12.0,16.0,70,0.00,,,0.00,WUHU216DAVISVP2,2013-05-26 17:12:00,
2013-05-26 12:17:00,72.6,62.5,30.05,North,351,11.0,15.0,70,0.00,,,0.00,WUHU216DAVISVP2,2013-05-26 17:17:00,
2013-05-26 12:22:00,72.5,62.8,30.04,NNE,25,4.0,16.0,71,0.00,,,0.00,WUHU216DAVISVP2,2013-05-26 17:22:00,
2013-05-26 12:27:00,72.4,62.2,30.04,North,352,4.0,16.0,70,0.00,,,0.00,WUHU216DAVISVP2,2013-05-26 17:27:00,
2013-05-26 12:32:00,72.5,63.1,30.04,North,353,7.0,16.0,72,0.00,,,0.00,WUHU216DAVISVP2,2013-05-26 17:32:00,
2013-05-26 12:37:00,72.4,62.7,30.04,NNW,345,3.0,16.0,71,0.00,,,0.00,WUHU216DAVISVP2,2013-05-26 17:37:00,
2013-05-26 12:42:00,72.6,62.5,30.04,NE,37,10.0,11.0,70,0.00,,,0.00,WUHU216DAVISVP2,2013-05-26 17:42:00,
2013-05-26 12:47:00,72.5,63.1,30.03,NNE,25,3.0,11.0,72,0.00,,,0.00,WUHU216DAVISVP2,2013-05-26 17:47:00,
2013-05-26 12:52:00,73.0,63.6,30.03,NNW,348,3.0,10.0,72,0.00,,,0.00,WUHU216DAVISVP2,2013-05-26 17:52:00,
2013-05-26 12:57:00,73.6,64.2,30.03,NNW,333,0.0,11.0,72,0.00,,,0.00,WUHU216DAVISVP2,2013-05-26 17:57:00,
2013-05-26 13:02:00,73.9,64.1,30.02,North,349,5.0,11.0,71,0.00,,,0.00,WUHU216DAVISVP2,2013-05-26 18:02:00,
2013-05-26 13:07:00,74.2,63.6,30.02,NNW,335,2.0,13.0,69,0.00,,,0.00,WUHU216DAVISVP2,2013-05-26 18:07:00,
2013-05-26 13:12:00,74.5,63.0,30.02,NE,36,0.0,13.0,67,0.00,,,0.00,WUHU216DAVISVP2,2013-05-26 18:12:00,
2013-05-26 13:18:00,74.5,63.9,30.02,North,358,4.0,13.0,69,0.00,,,0.00,WUHU216DAVISVP2,2013-05-26 18:18:00,
2013-05-26 13:23:00,74.9,63.5,30.02,NNW,347,5.0,17.0,67,0.00,,,0.00,WUHU216DAVISVP2,2013-05-26 18:23:00,
2013-05-26 13:28:00,75.0,63.5,30.01,ENE,60,7.0,17.0,67,0.00,,,0.00,WUHU216DAVISVP2,2013-05-26 18:28:00,
2013-05-26 13:32:00,74.6,62.7,30.01,NE,39,9.0,17.0,66,0.00,,,0.00,WUHU216DAVISVP2,2013-05-26 18:32:00,
2013-05-26 13:38:00,75.0,63.1,30.01,NNE,15,12.0,17.0,66,0.00,,,0.00,WUHU216DAVISVP2,2013-05-26 18:38:00,
2013-05-26 13:43:00,76.2,64.2,30.01,NNE,25,7.0,16.0,66,0.00,,,0.00,WUHU216DAVISVP2,2013-05-26 18:43:00,
2013-05-26 13:48:00,76.2,63.3,30.00,North,350,4.0,16.0,64,0.00,,,0.00,WUHU216DAVISVP2,2013-05-26 18:48:00,
2013-05-26 13:53:00,76.3,63.5,30.00,NNE,20,3.0,16.0,64,0.00,,,0.00,WUHU216DAVISVP2,2013-05-26 18:53:00,
2013-05-26 13:58:00,76.5,63.6,30.00,NW,325,10.0,16.0,64,0.00,,,0.00,WUHU216DAVISVP2,2013-05-26 18:58:00,
2013-05-26 14:03:00,76.0,62.3,30.00,North,353,3.0,17.0,62,0.00,,,0.00,WUHU216DAVISVP2,2013-05-26 19:03:00,
2013-05-26 14:08:00,76.4,63.1,30.00,NNE,20,6.0,17.0,63,0.00,,,0.00,WUHU216DAVISVP2,2013-05-26 19:08:00,
2013-05-26 14:13:00,77.0,63.2,29.99,NNE,31,9.0,18.0,62,0.00,,,0.00,WUHU216DAVISVP2,2013-05-26 19:13:00,
2013-05-26 14:18:00,77.0,62.7,29.99,NE,56,3.0,18.0,61,0.00,,,0.00,WUHU216DAVISVP2,2013-05-26 19:18:00,
2013-05-26 14:23:00,77.0,62.7,29.99,NNE,15,6.0,18.0,61,0.00,,,0.00,WUHU216DAVISVP2,2013-05-26 19:23:00,
2013-05-26 14:28:00,76.9,62.7,29.99,NNE,20,7.0,18.0,61,0.00,,,0.00,WUHU216DAVISVP2,2013-05-26 19:28:00,
2013-05-26 14:33:00,76.8,62.6,29.99,North,10,9.0,15.0,61,0.00,,,0.00,WUHU216DAVISVP2,2013-05-26 19:33:00,
2013-05-26 14:38:00,77.2,62.4,29.99,NE,56,7.0,16.0,60,0.00,,,0.00,WUHU216DAVISVP2,2013-05-26 19:38:00,
2013-05-26 14:43:00,77.6,62.8,29.99,NNE,25,9.0,16.0,60,0.00,,,0.00,WUHU216DAVISVP2,2013-05-26 19:43:00,
2013-05-26 14:48:00,77.8,63.1,29.99,North,10,9.0,16.0,60,0.00,,,0.00,WUHU216DAVISVP2,2013-05-26 19:48:00,
2013-05-26 14:53:00,77.0,62.3,29.98,North,3,9.0,16.0,60,0.00,,,0.00,WUHU216DAVISVP2,2013-05-26 19:53:00,
2013-05-26 14:58:00,77.5,62.3,29.98,NNE,25,2.0,16.0,59,0.00,,,0.00,WUHU216DAVISVP2,2013-05-26 19:58:00,
2013-05-26 15:03:00,78.2,62.4,29.98,NNE,25,3.0,16.0,58,0.00,,,0.00,WUHU216DAVISVP2,2013-05-26 20:03:00,
2013-05-26 15:08:00,78.3,63.0,29.98,NNE,15,6.0,16.0,59,0.00,,,0.00,WUHU216DAVISVP2,2013-05-26 20:08:00,
2013-05-26 15:13:00,78.5,61.7,29.98,NNE,15,10.0,14.0,56,0.00,,,0.00,WUHU216DAVISVP2,2013-05-26 20:13:00,
2013-05-26 15:18:00,78.6,62.3,29.98,NNW,330,6.0,16.0,57,0.00,,,0.00,WUHU216DAVISVP2,2013-05-26 20:18:00,
2013-05-26 15:23:00,78.6,61.8,29.97,NNE,15,8.0,16.0,56,0.00,,,0.00,WUHU216DAVISVP2,2013-05-26 20:23:00,
2013-05-26 15:28:00,78.9,61.0,29.97,NNE,25,12.0,16.0,54,0.00,,,0.00,WUHU216DAVISVP2,2013-05-26 20:28:00,
2013-05-26 15:33:00,79.0,61.7,29.97,North,5,13.0,18.0,55,0.00,,,0.00,WUHU216DAVISVP2,2013-05-26 20:33:00,
2013-05-26 15:38:00,79.1,61.8,29.97,ENE,68,7.0,18.0,55,0.00,,,0.00,WUHU216DAVISVP2,2013-05-26 20:38:00,
2013-05-26 15:43:00,79.4,62.5,29.97,NE,56,10.0,18.0,56,0.00,,,0.00,WUHU216DAVISVP2,2013-05-26 20:43:00,
2013-05-26 15:48:00,79.9,63.0,29.97,NNW,335,8.0,18.0,56,0.00,,,0.00,WUHU216DAVISVP2,2013-05-26 20:48:00,
2013-05-26 15:53:00,80.0,62.0,29.96,NNW,345,7.0,16.0,54,0.00,,,0.00,WUHU216DAVISVP2,2013-05-26 20:53:00,
2013-05-26 15:58:00,80.0,62.6,29.96,NNE,33,4.0,16.0,55,0.00,,,0.00,WUHU216DAVISVP2,2013-05-26 20:58:00,
2013-05-26 16:03:00,79.8,63.4,29.96,NNW,338,7.0,16.0,57,0.00,,,0.00,WUHU216DAVISVP2,2013-05-26 21:03:00,
2013-05-26 16:08:00,79.5,63.1,29.96,NE,43,7.0,14.0,57,0.00,,,0.00,WUHU216DAVISVP2,2013-05-26 21:08:00,
2013-05-26 16:13:00,79.1,63.8,29.96,NE,45,8.0,14.0,59,0.00,,,0.00,WUHU216DAVISVP2,2013-05-26 21:13:00,
2013-05-26 16:18:00,79.2,63.3,29.96,NNW,345,15.0,15.0,58,0.00,,,0.00,WUHU216DAVISVP2,2013-05-26 21:18:00,
2013-05-26 16:23:00,79.8,63.9,29.95,NNE,31,14.0,16.0,58,0.00,,,0.00,WUHU216DAVISVP2,2013-05-26 21:23:00,
2013-05-26 16:28:00,80.2,63.3,29.95,NE,54,7.0,16.0,56,0.00,,,0.00,WUHU216DAVISVP2,2013-05-26 21:28:00,
2013-05-26 16:33:00,80.5,63.5,29.95,NNE,29,2.0,16.0,56,0.00,,,0.00,WUHU216DAVISVP2,2013-05-26 21:33:00,
2013-05-26 16:38:00,80.6,63.7,29.95,NNE,15,4.0,16.0,56,0.00,,,0.00,WUHU216DAVISVP2,2013-05-26 21:38:00,
2013-05-26 16:43:00,80.9,64.4,29.95,NE,50,8.0,15.0,57,0.00,,,0.00,WUHU216DAVISVP2,2013-05-26 21:43:00,
2013-05-26 16:48:00,81.0,63.5,29.95,NE,54,10.0,15.0,55,0.00,,,0.00,WUHU216DAVISVP2,2013-05-26 21:48:00,
2013-05-26 16:53:00,81.2,64.3,29.95,NNE,15,7.0,15.0,56,0.00,,,0.00,WUHU216DAVISVP2,2013-05-26 21:53:00,
2013-05-26 16:58:00,81.5,64.5,29.95,NNW,348,11.0,14.0,56,0.00,,,0.00,WUHU216DAVISVP2,2013-05-26 21:58:00,
2013-05-26 17:03:00,81.5,64.5,29.95,NNE,30,7.0,14.0,56,0.00,,,0.00,WUHU216DAVISVP2,2013-05-26 22:03:00,
2013-05-26 17:08:00,81.6,64.6,29.95,North,349,6.0,14.0,56,0.00,,,0.00,WUHU216DAVISVP2,2013-05-26 22:08:00,
2013-05-26 17:13:00,81.6,64.6,29.94,NNE,30,1.0,14.0,56,0.00,,,0.00,WUHU216DAVISVP2,2013-05-26 22:13:00,
2013-05-26 17:18:00,81.6,65.1,29.94,NE,49,3.0,13.0,57,0.00,,,0.00,WUHU216DAVISVP2,2013-05-26 22:18:00,
2013-05-26 17:23:00,81.2,64.7,29.94,NE,35,2.0,13.0,57,0.00,,,0.00,WUHU216DAVISVP2,2013-05-26 22:23:00,
2013-05-26 17:28:00,81.1,64.7,29.94,NNE,33,4.0,13.0,57,0.00,,,0.00,WUHU216DAVISVP2,2013-05-26 22:28:00,
2013-05-26 17:33:00,81.2,65.2,29.94,NE,35,3.0,13.0,58,0.00,,,0.00,WUHU216DAVISVP2,2013-05-26 22:33:00,
2013-05-26 17:38:00,81.2,64.8,29.94,NE,35,1.0,13.0,57,0.00,,,0.00,WUHU216DAVISVP2,2013-05-26 22:38:00,
2013-05-26 17:43:00,81.3,65.3,29.93,North,8,6.0,13.0,58,0.00,,,0.00,WUHU216DAVISVP2,2013-05-26 22:43:00,
2013-05-26 17:48:00,81.7,66.2,29.93,North,8,3.0,13.0,59,0.00,,,0.00,WUHU216DAVISVP2,2013-05-26 22:48:00,
2013-05-26 17:53:00,82.2,65.7,29.93,NNE,29,5.0,13.0,57,0.00,,,0.00,WUHU216DAVISVP2,2013-05-26 22:53:00,
2013-05-26 17:58:00,82.4,66.4,29.93,NNE,25,0.0,10.0,58,0.00,,,0.00,WUHU216DAVISVP2,2013-05-26 22:58:00,
2013-05-26 18:03:00,82.4,65.3,29.93,NE,39,1.0,12.0,56,0.00,,,0.00,WUHU216DAVISVP2,2013-05-26 23:03:00,
2013-05-26 18:08:00,82.5,65.5,29.93,NE,42,8.0,14.0,56,0.00,,,0.00,WUHU216DAVISVP2,2013-05-26 23:08:00,
2013-05-26 18:13:00,82.5,64.9,29.93,North,10,5.0,14.0,55,0.00,,,0.00,WUHU216DAVISVP2,2013-05-26 23:13:00,
2013-05-26 18:18:00,82.4,65.3,29.93,NNE,15,3.0,15.0,56,0.00,,,0.00,WUHU216DAVISVP2,2013-05-26 23:18:00,
2013-05-26 18:23:00,82.3,64.7,29.92,NE,39,10.0,15.0,55,0.00,,,0.00,WUHU216DAVISVP2,2013-05-26 23:23:00,
2013-05-26 18:28:00,82.2,65.1,29.92,North,1,7.0,15.0,56,0.00,,,0.00,WUHU216DAVISVP2,2013-05-26 23:28:00,
2013-05-26 18:33:00,82.0,64.4,29.92,NNE,20,4.0,15.0,55,0.00,,,0.00,WUHU216DAVISVP2,2013-05-26 23:33:00,
2013-05-26 18:38:00,81.8,64.8,29.92,NE,41,5.0,14.0,56,0.00,,,0.00,WUHU216DAVISVP2,2013-05-26 23:38:00,
2013-05-26 18:43:00,81.7,65.2,29.92,NNE,15,5.0,13.0,57,0.00,,,0.00,WUHU216DAVISVP2,2013-05-26 23:43:00,
2013-05-26 18:48:00,81.4,64.4,29.92,NNE,31,12.0,16.0,56,0.00,,,0.00,WUHU216DAVISVP2,2013-05-26 23:48:00,
2013-05-26 18:53:00,81.2,64.2,29.92,NE,44,4.0,16.0,56,0.00,,,0.00,WUHU216DAVISVP2,2013-05-26 23:53:00,
2013-05-26 18:58:00,81.0,65.0,29.92,NNE,25,3.0,16.0,58,0.00,,,0.00,WUHU216DAVISVP2,2013-05-26 23:58:00,
2013-05-26 19:03:00,80.8,64.4,29.92,NNE,15,3.0,16.0,57,0.00,,,0.00,WUHU216DAVISVP2,2013-05-27 00:03:00,
2013-05-26 19:08:00,80.7,64.3,29.92,ENE,57,2.0,11.0,57,0.00,,,0.00,WUHU216DAVISVP2,2013-05-27 00:08:00,
2013-05-26 19:13:00,80.6,64.1,29.92,NNE,20,6.0,11.0,57,0.00,,,0.00,WUHU216DAVISVP2,2013-05-27 00:13:00,
2013-05-26 19:18:00,80.2,64.3,29.92,NNE,25,8.0,11.0,58,0.00,,,0.00,WUHU216DAVISVP2,2013-05-27 00:18:00,
2013-05-26 19:23:00,80.0,64.1,29.92,NNE,25,2.0,12.0,58,0.00,,,0.00,WUHU216DAVISVP2,2013-05-27 00:23:00,
2013-05-26 19:28:00,79.6,64.3,29.92,North,8,2.0,12.0,59,0.00,,,0.00,WUHU216DAVISVP2,2013-05-27 00:28:00,
2013-05-26 19:33:00,79.5,64.6,29.92,NNW,335,2.0,12.0,60,0.00,,,0.00,WUHU216DAVISVP2,2013-05-27 00:33:00,
2013-05-26 19:38:00,79.3,64.4,29.92,NNE,20,0.0,11.0,60,0.00,,,0.00,WUHU216DAVISVP2,2013-05-27 00:38:00,
2013-05-26 19:43:00,79.1,64.8,29.92,NNE,15,2.0,11.0,61,0.00,,,0.00,WUHU216DAVISVP2,2013-05-27 00:43:00,
2013-05-26 19:48:00,78.9,64.5,29.92,North,4,1.0,8.0,61,0.00,,,0.00,WUHU216DAVISVP2,2013-05-27 00:48:00,
2013-05-26 19:53:00,78.7,64.8,29.93,NNE,20,4.0,7.0,62,0.00,,,0.00,WUHU216DAVISVP2,2013-05-27 00:53:00,
2013-05-26 19:58:00,78.3,64.5,29.93,North,360,2.0,8.0,62,0.00,,,0.00,WUHU216DAVISVP2,2013-05-27 00:58:00,
2013-05-26 20:03:00,78.1,64.7,29.93,North,355,4.0,8.0,63,0.00,,,0.00,WUHU216DAVISVP2,2013-05-27 01:03:00,
2013-05-26 20:08:00,77.8,64.4,29.93,North,350,11.0,11.0,63,0.00,,,0.00,WUHU216DAVISVP2,2013-05-27 01:08:00,
2013-05-26 20:13:00,77.4,65.4,29.93,NW,322,3.0,13.0,66,0.00,,,0.00,WUHU216DAVISVP2,2013-05-27 01:13:00,
2013-05-26 20:18:00,77.1,65.5,29.93,North,355,9.0,13.0,67,0.00,,,0.00,WUHU216DAVISVP2,2013-05-27 01:18:00,
2013-05-26 20:23:00,76.8,65.6,29.92,North,4,6.0,13.0,68,0.00,,,0.00,WUHU216DAVISVP2,2013-05-27 01:23:00,
2013-05-26 20:28:00,76.4,65.7,29.92,North,351,7.0,13.0,69,0.00,,,0.00,WUHU216DAVISVP2,2013-05-27 01:28:00,
2013-05-26 20:33:00,76.1,65.8,29.92,North,359,6.0,12.0,70,0.00,,,0.00,WUHU216DAVISVP2,2013-05-27 01:33:00,
2013-05-26 20:38:00,75.9,65.6,29.92,NNW,339,3.0,11.0,70,0.00,,,0.00,WUHU216DAVISVP2,2013-05-27 01:38:00,
2013-05-26 20:43:00,75.6,65.7,29.92,North,357,5.0,11.0,71,0.00,,,0.00,WUHU216DAVISVP2,2013-05-27 01:43:00,
2013-05-26 20:48:00,75.1,65.7,29.92,North,356,3.0,10.0,72,0.00,,,0.00,WUHU216DAVISVP2,2013-05-27 01:48:00,
2013-05-26 20:53:00,74.8,65.7,29.92,North,351,3.0,10.0,73,0.00,,,0.00,WUHU216DAVISVP2,2013-05-27 01:53:00,
2013-05-26 20:58:00,74.5,65.8,29.92,NNW,343,8.0,9.0,74,0.00,,,0.00,WUHU216DAVISVP2,2013-05-27 01:58:00,
2013-05-26 21:03:00,74.2,65.6,29.93,NNW,347,4.0,9.0,74,0.00,,,0.00,WUHU216DAVISVP2,2013-05-27 02:03:00,
2013-05-26 21:08:00,74.0,65.4,29.93,North,355,2.0,9.0,74,0.00,,,0.00,WUHU216DAVISVP2,2013-05-27 02:08:00,
2013-05-26 21:13:00,73.8,65.5,29.93,NNW,347,2.0,9.0,75,0.00,,,0.00,WUHU216DAVISVP2,2013-05-27 02:13:00,
2013-05-26 21:18:00,73.4,65.2,29.93,North,356,3.0,9.0,75,0.00,,,0.00,WUHU216DAVISVP2,2013-05-27 02:18:00,
2013-05-26 21:23:00,73.3,65.1,29.93,North,353,3.0,9.0,75,0.00,,,0.00,WUHU216DAVISVP2,2013-05-27 02:23:00,
2013-05-26 21:28:00,73.2,65.3,29.93,NNW,347,6.0,9.0,76,0.00,,,0.00,WUHU216DAVISVP2,2013-05-27 02:28:00,
2013-05-26 21:33:00,73.0,65.1,29.94,NNW,338,3.0,9.0,76,0.00,,,0.00,WUHU216DAVISVP2,2013-05-27 02:33:00,
2013-05-26 21:38:00,72.9,65.1,29.94,North,5,2.0,9.0,76,0.00,,,0.00,WUHU216DAVISVP2,2013-05-27 02:38:00,
2013-05-26 21:43:00,72.8,65.3,29.94,NNW,348,7.0,8.0,77,0.00,,,0.00,WUHU216DAVISVP2,2013-05-27 02:43:00,
2013-05-26 21:48:00,72.6,65.1,29.94,NNW,333,5.0,10.0,77,0.00,,,0.00,WUHU216DAVISVP2,2013-05-27 02:48:00,
2013-05-26 21:53:00,72.4,65.2,29.94,North,353,4.0,10.0,78,0.00,,,0.00,WUHU216DAVISVP2,2013-05-27 02:53:00,
2013-05-26 21:58:00,72.2,65.1,29.94,NNW,347,3.0,10.0,78,0.00,,,0.00,WUHU216DAVISVP2,2013-05-27 02:58:00,
2013-05-26 22:03:00,72.1,65.0,29.94,NW,322,7.0,10.0,78,0.00,,,0.00,WUHU216DAVISVP2,2013-05-27 03:03:00,
2013-05-26 22:08:00,72.0,64.9,29.94,NNW,340,5.0,10.0,78,0.00,,,0.00,WUHU216DAVISVP2,2013-05-27 03:08:00,
2013-05-26 22:13:00,71.8,64.7,29.94,NNW,343,5.0,10.0,78,0.00,,,0.00,WUHU216DAVISVP2,2013-05-27 03:13:00,
2013-05-26 22:18:00,71.7,64.9,29.94,NNW,347,7.0,10.0,79,0.00,,,0.00,WUHU216DAVISVP2,2013-05-27 03:18:00,
2013-05-26 22:23:00,71.4,64.7,29.94,NNE,20,6.0,12.0,79,0.00,,,0.00,WUHU216DAVISVP2,2013-05-27 03:23:00,
2013-05-26 22:28:00,71.4,64.7,29.93,NW,325,8.0,12.0,79,0.00,,,0.00,WUHU216DAVISVP2,2013-05-27 03:28:00,
2013-05-26 22:33:00,71.3,64.5,29.93,NNW,341,4.0,12.0,79,0.00,,,0.00,WUHU216DAVISVP2,2013-05-27 03:33:00,
2013-05-26 22:38:00,71.3,64.5,29.93,NNW,334,13.0,13.0,79,0.00,,,0.00,WUHU216DAVISVP2,2013-05-27 03:38:00,
2013-05-26 22:43:00,71.2,64.8,29.93,North,356,4.0,15.0,80,0.00,,,0.00,WUHU216DAVISVP2,2013-05-27 03:43:00,
2013-05-26 22:48:00,71.1,64.7,29.94,North,356,3.0,15.0,80,0.00,,,0.00,WUHU216DAVISVP2,2013-05-27 03:48:00,
2013-05-26 22:53:00,71.0,64.6,29.94,NNW,342,2.0,15.0,80,0.00,,,0.00,WUHU216DAVISVP2,2013-05-27 03:53:00,
2013-05-26 22:58:00,70.9,64.5,29.94,NNW,344,7.0,15.0,80,0.00,,,0.00,WUHU216DAVISVP2,2013-05-27 03:58:00,
2013-05-26 23:01:00,70.9,64.5,29.94,North,353,9.0,15.0,80,0.00,,,0.00,WUHU216DAVISVP2,2013-05-27 04:01:00,
2013-05-26 23:02:00,70.9,64.5,29.94,North,3,9.0,13.0,80,0.00,,,0.00,WUHU216DAVISVP2,2013-05-27 04:02:00,
2013-05-26 23:07:00,70.8,64.4,29.94,NNE,15,3.0,13.0,80,0.00,,,0.00,WUHU216DAVISVP2,2013-05-27 04:07:00,
2013-05-26 23:12:00,70.7,64.6,29.94,North,349,4.0,13.0,81,0.00,,,0.00,WUHU216DAVISVP2,2013-05-27 04:12:00,
2013-05-26 23:17:00,70.5,64.5,29.94,North,360,4.0,13.0,81,0.00,,,0.00,WUHU216DAVISVP2,2013-05-27 04:17:00,
2013-05-26 23:22:00,70.4,64.4,29.94,NNW,345,2.0,13.0,81,0.00,,,0.00,WUHU216DAVISVP2,2013-05-27 04:22:00,
2013-05-26 23:27:00,70.3,64.3,29.94,NNW,345,3.0,11.0,81,0.00,,,0.00,WUHU216DAVISVP2,2013-05-27 04:27:00,
2013-05-26 23:32:00,70.2,64.2,29.94,North,360,4.0,9.0,81,0.00,,,0.00,WUHU216DAVISVP2,2013-05-27 04:32:00,
2013-05-26 23:37:00,70.1,64.1,29.94,North,359,2.0,9.0,81,0.00,,,0.00,WUHU216DAVISVP2,2013-05-27 04:37:00,
2013-05-26 23:42:00,69.9,63.9,29.94,North,356,7.0,10.0,81,0.00,,,0.00,WUHU216DAVISVP2,2013-05-27 04:42:00,
2013-05-26 23:47:00,69.8,63.8,29.94,North,2,2.0,10.0,81,0.00,,,0.00,WUHU216DAVISVP2,2013-05-27 04:47:00,
2013-05-26 23:52:00,69.6,63.9,29.94,North,353,4.0,10.0,82,0.00,,,0.00,WUHU216DAVISVP2,2013-05-27 04:52:00,
2013-05-26 23:57:00,69.5,63.8,29.94,North,4,5.0,10.0,82,0.00,,,0.00,WUHU216DAVISVP2,2013-05-27 04:57:00,